{"data":{"norad_id":69625,"intl_designator":"2026-140AK","name":"KUIPER-00564","alt_names":[],"object_type":"PAYLOAD","status":"ACTIVE","operator":null,"country":"US","launch_date":"2026-06-17","launch_site_code":"FRGUI","launch_vehicle":null,"mission":null,"orbit_class":"UNKNOWN","rcs_meters":null,"size_class":null,"mass_kg":null,"dimensions":null,"purposes":[],"wikipedia_slug":null,"has_3d_model":false,"image_url":null,"decayed_at":null,"tle_current":{"epoch":"2026-09-18T04:58:20.953344Z","epoch_age_seconds":227149,"freshness":"STALE","line1":"1 69625U 26140AK  26261.20718696  .00003404  00000+0  51350-3 0  9994","line2":"2 69625  51.8983 319.2870 0002494 115.6463 244.4756 14.76595908 15405","mean_motion":14.76595908,"eccentricity":0.0002494,"inclination_deg":51.8983,"raan_deg":319.287,"arg_perigee_deg":115.6463,"mean_anomaly_deg":244.4756,"bstar":0.0005135,"rev_number":1540,"period_min":97.521603046458,"perigee_km":638.33949058177,"apogee_km":641.84018212774,"semimajor_km":7018.2268363548,"source":"CELESTRAK","updated_at":"2026-09-20T09:00:25.031570Z"}}}